QTR1396 GMMX-GMMN

Flight info

Callsign QTR1396
Flight time 0h 29m
Altitude 16000
Route MABAP R722 FOBAC
Aircraft A35K/H-SDE2E3GHIJ3J4J5LM1ORWXY/LB1D1

Departure

Time 2026-05-06 17:16
Airport Marrakesh Menara Airport (GMMX)

Arrival

Time 2026-05-06 17:46
Airport Mohammed V International Airport (GMMN)
Time Latitude Longitude Altitude Speed Heading
2026-05-06 17:00 31.60046 -8.02306 1555 ft 0 kts 279°
2026-05-06 17:06 31.60045 -8.02301 1555 ft 3 kts 280°
2026-05-06 17:07 31.60042 -8.02281 1555 ft 2 kts 283°
2026-05-06 17:07 31.60041 -8.02273 1555 ft 3 kts 289°
2026-05-06 17:07 31.60033 -8.02252 1555 ft 3 kts 306°
2026-05-06 17:07 31.60020 -8.02236 1555 ft 3 kts 323°
2026-05-06 17:08 31.60004 -8.02225 1555 ft 3 kts 341°
2026-05-06 17:08 31.59995 -8.02222 1555 ft 0 kts 350°
2026-05-06 17:09 31.59997 -8.02222 1555 ft 1 kts 350°
2026-05-06 17:10 31.60055 -8.02225 1555 ft 14 kts
2026-05-06 17:10 31.60154 -8.02215 1555 ft 15 kts
2026-05-06 17:10 31.60263 -8.02204 1555 ft 16 kts
2026-05-06 17:10 31.60361 -8.02228 1555 ft 13 kts 317°
2026-05-06 17:11 31.60396 -8.02321 1555 ft 13 kts 283°
2026-05-06 17:11 31.60410 -8.02435 1555 ft 15 kts 277°
2026-05-06 17:11 31.60423 -8.02565 1555 ft 17 kts 276°
2026-05-06 17:11 31.60437 -8.02708 1555 ft 19 kts 276°
2026-05-06 17:12 31.60446 -8.02861 1555 ft 20 kts 272°
2026-05-06 17:12 31.60462 -8.03024 1555 ft 21 kts 279°
2026-05-06 17:12 31.60483 -8.03198 1555 ft 22 kts 275°
2026-05-06 17:12 31.60500 -8.03381 1554 ft 23 kts 272°
2026-05-06 17:13 31.60512 -8.03576 1554 ft 25 kts 275°
2026-05-06 17:13 31.60526 -8.03781 1554 ft 26 kts 275°
2026-05-06 17:13 31.60548 -8.03991 1553 ft 27 kts 277°
2026-05-06 17:13 31.60570 -8.04212 1553 ft 28 kts 277°
2026-05-06 17:14 31.60589 -8.04439 1553 ft 28 kts 273°
2026-05-06 17:14 31.60607 -8.04672 1553 ft 29 kts 275°
2026-05-06 17:14 31.60633 -8.04909 1553 ft 30 kts 277°
2026-05-06 17:14 31.60658 -8.05154 1552 ft 27 kts 274°
2026-05-06 17:15 31.60688 -8.05235 1551 ft 11 kts 329°
2026-05-06 17:15 31.60791 -8.05229 1534 ft 20 kts 26°
2026-05-06 17:15 31.60819 -8.05146 1538 ft 0 kts 93°
2026-05-06 17:15 31.60819 -8.05136 1538 ft 11 kts 92°
2026-05-06 17:16 31.60791 -8.04758 1536 ft 83 kts 96°
2026-05-06 17:16 31.60711 -8.03835 1545 ft 143 kts 94°
2026-05-06 17:16 31.60556 -8.02496 1774 ft 177 kts 95°
2026-05-06 17:16 31.60370 -8.01070 2497 ft 175 kts 102°
2026-05-06 17:17 31.59857 -7.99800 3220 ft 176 kts 118°
2026-05-06 17:17 31.59251 -7.98513 3637 ft 185 kts 117°
2026-05-06 17:17 31.58710 -7.97081 3953 ft 199 kts 108°
2026-05-06 17:17 31.58288 -7.95498 4243 ft 214 kts 105°
2026-05-06 17:18 31.57806 -7.93780 4547 ft 228 kts 107°
2026-05-06 17:18 31.57271 -7.91994 4923 ft 239 kts 108°
2026-05-06 17:18 31.56939 -7.90039 5336 ft 250 kts 87°
2026-05-06 17:18 31.57484 -7.88123 5930 ft 252 kts 53°
2026-05-06 17:19 31.58874 -7.86894 6492 ft 256 kts 18°
2026-05-06 17:19 31.60624 -7.86785 7021 ft 256 kts 343°
2026-05-06 17:19 31.62120 -7.87845 7582 ft 254 kts 309°
2026-05-06 17:19 31.63086 -7.89563 8269 ft 252 kts 297°
2026-05-06 17:20 31.63933 -7.91364 8993 ft 252 kts 296°
2026-05-06 17:20 31.64787 -7.93158 9720 ft 252 kts 296°
2026-05-06 17:20 31.65647 -7.94922 10366 ft 253 kts 296°
2026-05-06 17:20 31.66536 -7.96712 11037 ft 253 kts 296°
2026-05-06 17:21 31.67431 -7.98494 11682 ft 255 kts 296°
2026-05-06 17:21 31.68332 -8.00286 12335 ft 255 kts 296°
2026-05-06 17:21 31.69237 -8.02079 13014 ft 256 kts 295°
2026-05-06 17:21 31.70145 -8.03880 13653 ft 257 kts 295°
2026-05-06 17:22 31.71058 -8.05689 14224 ft 259 kts 295°
2026-05-06 17:22 31.71981 -8.07514 14808 ft 261 kts 295°
2026-05-06 17:22 31.72965 -8.09322 15416 ft 265 kts 300°
2026-05-06 17:22 31.74199 -8.10967 15788 ft 272 kts 310°
2026-05-06 17:23 31.75727 -8.12285 15883 ft 284 kts 323°
2026-05-06 17:23 31.77650 -8.13251 15904 ft 321 kts 337°
2026-05-06 17:23 31.79959 -8.13831 15908 ft 356 kts 344°
2026-05-06 17:23 31.82510 -8.14300 15901 ft 385 kts 346°
2026-05-06 17:24 31.85234 -8.14776 15897 ft 403 kts 346°
2026-05-06 17:24 31.88022 -8.15266 15898 ft 407 kts 346°
2026-05-06 17:24 31.90817 -8.15754 15899 ft 407 kts 346°
2026-05-06 17:24 31.93618 -8.16256 15902 ft 406 kts 345°
2026-05-06 17:25 31.96390 -8.16846 15906 ft 406 kts 346°
2026-05-06 17:25 31.99152 -8.17335 15907 ft 407 kts 346°
2026-05-06 17:25 32.01949 -8.17819 15906 ft 407 kts 346°
2026-05-06 17:25 32.04749 -8.18315 15911 ft 407 kts 346°
2026-05-06 17:26 32.07551 -8.18821 15913 ft 407 kts 346°
2026-05-06 17:26 32.10344 -8.19329 15912 ft 407 kts 346°
2026-05-06 17:26 32.13184 -8.19541 15917 ft 414 kts 358°
2026-05-06 17:26 32.16065 -8.19197 15915 ft 417 kts
2026-05-06 17:27 32.18937 -8.18720 15916 ft 417 kts
2026-05-06 17:27 32.21768 -8.18239 15920 ft 417 kts
2026-05-06 17:27 32.24643 -8.17757 15911 ft 417 kts
2026-05-06 17:27 32.27518 -8.17281 15917 ft 417 kts
2026-05-06 17:28 32.30392 -8.16810 15920 ft 417 kts
2026-05-06 17:28 32.33267 -8.16340 15917 ft 417 kts
2026-05-06 17:28 32.36140 -8.15872 15918 ft 417 kts
2026-05-06 17:28 32.39022 -8.15403 15914 ft 417 kts
2026-05-06 17:29 32.41897 -8.14935 15921 ft 417 kts
2026-05-06 17:29 32.44773 -8.14466 15911 ft 417 kts
2026-05-06 17:29 32.47646 -8.13997 15915 ft 417 kts
2026-05-06 17:29 32.50485 -8.13533 15927 ft 418 kts
2026-05-06 17:30 32.53366 -8.13062 15923 ft 418 kts
2026-05-06 17:30 32.56245 -8.12592 15921 ft 417 kts
2026-05-06 17:30 32.59120 -8.12122 15918 ft 418 kts
2026-05-06 17:30 32.61990 -8.11653 15709 ft 414 kts
2026-05-06 17:31 32.64838 -8.11187 15475 ft 412 kts
2026-05-06 17:31 32.67649 -8.10725 15225 ft 403 kts
2026-05-06 17:31 32.70403 -8.10271 14798 ft 397 kts
2026-05-06 17:31 32.73092 -8.09831 14246 ft 394 kts
2026-05-06 17:32 32.75800 -8.09391 13691 ft 392 kts
2026-05-06 17:32 32.78495 -8.08951 13104 ft 389 kts
2026-05-06 17:32 32.81163 -8.08513 12553 ft 385 kts
2026-05-06 17:32 32.83805 -8.08077 12024 ft 381 kts
2026-05-06 17:33 32.86416 -8.07647 11492 ft 377 kts
2026-05-06 17:33 32.89002 -8.07219 11003 ft 373 kts
2026-05-06 17:33 32.91463 -8.06442 10841 ft 363 kts 21°
2026-05-06 17:33 32.93487 -8.04740 10729 ft 353 kts 45°
2026-05-06 17:34 32.94791 -8.02336 10596 ft 341 kts 65°
2026-05-06 17:34 32.95675 -7.99772 10472 ft 329 kts 69°
2026-05-06 17:34 32.96465 -7.97299 10332 ft 319 kts 69°
2026-05-06 17:34 32.97241 -7.94865 10089 ft 312 kts 69°
2026-05-06 17:35 32.98015 -7.92458 9751 ft 311 kts 69°
2026-05-06 17:35 32.98799 -7.90039 9403 ft 313 kts 69°
2026-05-06 17:35 32.99584 -7.87623 9075 ft 312 kts 69°
2026-05-06 17:36 33.01128 -7.82837 8433 ft 308 kts 69°
2026-05-06 17:36 33.01898 -7.80456 8107 ft 305 kts 69°
2026-05-06 17:36 33.02659 -7.78111 7782 ft 303 kts 69°
2026-05-06 17:36 33.03417 -7.75772 7316 ft 304 kts 69°
2026-05-06 17:37 33.03924 -7.74212 6999 ft 305 kts 69°
2026-05-06 17:37 33.04937 -7.71088 6440 ft 304 kts 69°
2026-05-06 17:37 33.05700 -7.68738 6021 ft 303 kts 69°
2026-05-06 17:37 33.06457 -7.66399 5597 ft 301 kts 69°
2026-05-06 17:38 33.07203 -7.64082 5178 ft 299 kts 69°
2026-05-06 17:38 33.07940 -7.61781 4747 ft 290 kts 68°
2026-05-06 17:38 33.08639 -7.59605 4304 ft 275 kts 68°
2026-05-06 17:38 33.09090 -7.58205 4024 ft 270 kts 67°
2026-05-06 17:39 33.09746 -7.56170 3640 ft 255 kts 66°
2026-05-06 17:39 33.10548 -7.53724 3544 ft 220 kts 62°
2026-05-06 17:39 33.11361 -7.52279 3566 ft 206 kts 41°
2026-05-06 17:39 33.12529 -7.51459 3604 ft 189 kts 15°
2026-05-06 17:40 33.13817 -7.51349 3594 ft 187 kts 352°
2026-05-06 17:40 33.15089 -7.51701 3582 ft 188 kts 345°
2026-05-06 17:40 33.15919 -7.51998 3582 ft 187 kts 343°
2026-05-06 17:40 33.17166 -7.52458 3577 ft 187 kts 343°
2026-05-06 17:41 33.18413 -7.52914 3595 ft 187 kts 343°
2026-05-06 17:41 33.19662 -7.53362 3601 ft 188 kts 343°
2026-05-06 17:41 33.21320 -7.53934 3508 ft 185 kts 344°
2026-05-06 17:41 33.22559 -7.54364 3119 ft 187 kts 345°
2026-05-06 17:42 33.23411 -7.54659 2745 ft 190 kts 345°
2026-05-06 17:42 33.24682 -7.55090 2187 ft 190 kts 345°
2026-05-06 17:42 33.25923 -7.55505 1866 ft 181 kts 344°
2026-05-06 17:42 33.27017 -7.55908 1938 ft 151 kts 343°
2026-05-06 17:43 33.27963 -7.56257 1872 ft 134 kts 344°
2026-05-06 17:43 33.28835 -7.56558 1779 ft 129 kts 344°
2026-05-06 17:43 33.29706 -7.56853 1686 ft 131 kts 346°
2026-05-06 17:43 33.30879 -7.57250 1531 ft 133 kts 346°
2026-05-06 17:44 33.31477 -7.57441 1425 ft 131 kts 346°
2026-05-06 17:44 33.32337 -7.57723 1253 ft 127 kts 346°
2026-05-06 17:44 33.33187 -7.58012 1078 ft 127 kts 348°
2026-05-06 17:44 33.34034 -7.58294 911 ft 129 kts 346°
2026-05-06 17:45 33.34893 -7.58585 731 ft 128 kts 347°
2026-05-06 17:45 33.35181 -7.58681 674 ft 129 kts 346°
2026-05-06 17:45 33.35665 -7.58838 657 ft 94 kts 344°
2026-05-06 17:45 33.36099 -7.58991 657 ft 55 kts 345°
2026-05-06 17:46 33.36438 -7.59103 657 ft 47 kts 343°
2026-05-06 17:46 33.36736 -7.59203 656 ft 42 kts 342°
2026-05-06 17:46 33.36999 -7.59298 658 ft 37 kts 343°
2026-05-06 17:46 33.37241 -7.59384 660 ft 36 kts 343°
2026-05-06 17:47 33.37478 -7.59464 660 ft 35 kts 344°
2026-05-06 17:47 33.37677 -7.59511 658 ft 26 kts 15°
2026-05-06 17:47 33.37750 -7.59371 657 ft 7 kts 73°
2026-05-06 17:47 33.37756 -7.59350 657 ft 1 kts 73°
2026-05-06 17:48 33.37761 -7.59327 657 ft 5 kts 73°
2026-05-06 17:48 33.37776 -7.59262 659 ft 11 kts 75°
2026-05-06 17:48 33.37802 -7.59147 651 ft 17 kts 74°
2026-05-06 17:48 33.37834 -7.59010 656 ft 16 kts 74°
2026-05-06 17:49 33.37865 -7.58886 658 ft 14 kts 72°
2026-05-06 17:49 33.37823 -7.58801 658 ft 14 kts 159°
2026-05-06 17:49 33.37725 -7.58770 658 ft 17 kts 171°
2026-05-06 17:49 33.37612 -7.58732 659 ft 18 kts 162°
2026-05-06 17:50 33.37483 -7.58684 659 ft 21 kts 162°
2026-05-06 17:50 33.37337 -7.58630 659 ft 23 kts 164°
2026-05-06 17:50 33.37173 -7.58573 659 ft 26 kts 163°
2026-05-06 17:50 33.37025 -7.58522 659 ft 13 kts 164°
2026-05-06 17:51 33.36945 -7.58494 659 ft 8 kts 164°
2026-05-06 17:51 33.36920 -7.58482 659 ft 1 kts 138°
2026-05-06 17:51 33.36915 -7.58468 659 ft 3 kts 119°
2026-05-06 17:51 33.36910 -7.58433 659 ft 6 kts 90°
2026-05-06 17:52 33.36918 -7.58375 659 ft 8 kts 77°
2026-05-06 17:52 33.36936 -7.58296 659 ft 11 kts 75°
2026-05-06 17:52 33.36934 -7.58201 659 ft 12 kts 129°